This demonstration page uses our WeatherBlox Daily Observations layout. Learn more.

Left ArrowRight Arrow

Hourly Observations for July 3, 2016

Temp ( °F °C ) Dew Point ( °F °C ) Humidity (%) Winds ( mph kmh ) Pressure ( in mb ) Visibility ( mi km ) Precip ( " mm )
12:59 am 00:59 Mostly Cloudy 73 22.8 65 18.3 76 76 ESE 5 7 30.10 1019 10 16 0.00 0.00
1:59 am 01:59 Mostly Cloudy 73 22.8 65 18.3 76 76 ESE 5 7 30.08 1019 10 16 0.00 0.00
2:59 am 02:59 Mostly Cloudy with Haze 73 22.8 65 18.3 76 76 Calm 30.08 1019 2 3 0.00 0.00
3:02 am 03:02 Cloudy with Rain 71 21.7 66 18.9 84 84 Calm 30.09 1019 1 2 0.08 2.03
3:11 am 03:11 Cloudy with Rain 71 21.7 66 18.9 84 84 NNE 3 6 30.09 1019 2 3 0.14 3.56
3:21 am 03:21 Mostly Cloudy with Light Rain 72 22.2 67 19.4 84 84 E 8 13 30.06 1018 5 8 0.14 3.56
3:30 am 03:30 Mostly Cloudy 72 22.2 66 18.9 82 82 ENE 6 9 30.06 1018 10 16 0.14 3.56
3:59 am 03:59 Mostly Cloudy 71 21.7 68 20 90 90 Calm 30.07 1018 10 16 0.14 3.56
4:31 am 04:31 Cloudy with Light Rain 72 22.2 66 18.9 82 82 SSE 3 6 30.06 1018 5 8 0.01 0.25
4:59 am 04:59 Cloudy with Light Rain 71 21.7 68 20 90 90 NNW 3 6 30.06 1018 10 16 0.04 1.02
5:06 am 05:06 Mostly Cloudy 71 21.7 68 20 90 90 Calm 30.06 1018 10 16 0.00 0.03
5:59 am 05:59 Mostly Cloudy 71 21.7 68 20 90 90 Calm 30.07 1018 10 16 0.00 0.03
6:59 am 06:59 Cloudy with Light Rain 71 21.7 68 20 90 90 NNE 17 28 30.09 1019 7 11 0.00 0.03
7:59 am 07:59 Cloudy with Rain 68 20 65 18.3 90 90 NE 16 26 30.11 1020 3 5 0.09 2.29
8:04 am 08:04 Cloudy with Heavy Rain 68 20 65 18.3 90 90 NE 14 22 30.12 1020 2 3 0.03 0.76
8:11 am 08:11 Cloudy with Heavy Rain 68 20 65 18.3 90 90 NE 13 20 30.12 1020 1 2 0.07 1.78
8:32 am 08:32 Cloudy with Rain 67 19.4 64 17.8 91 91 NE 22 35 30.12 1020 2 3 0.27 6.86
8:43 am 08:43 Cloudy with Rain 67 19.4 64 17.8 91 91 NE 21 33 30.12 1020 3 4 0.35 8.89
8:59 am 08:59 Cloudy with Rain 67 19.4 64 17.8 91 91 NE 18 30 30.12 1020 3 4 0.41 10.41
9:30 am 09:30 Cloudy with Light Rain 67 19.4 64 17.8 91 91 ENE 16 26 30.12 1020 3 5 0.05 1.27
9:42 am 09:42 Cloudy with Heavy Rain 67 19.4 64 17.8 91 91 NE 13 20 30.15 1021 2 3 0.08 2.03
9:47 am 09:47 Cloudy with Rain 67 19.4 64 17.8 91 91 NE 17 28 30.12 1020 1 2 0.11 2.79
9:54 am 09:54 Cloudy with Heavy Rain 66 19 64 18 94 94 NE 16 26 30.15 1021 1 1 0.15 3.81
9:59 am 09:59 Cloudy with Light Rain 66 18.9 64 17.8 93 93 ENE 16 26 30.14 1021 2 3 0.19 4.83
10:01 am 10:01 Cloudy with Light Rain 66 18.9 64 17.8 93 93 NE 14 22 30.15 1021 3 5 0.01 0.25
10:59 am 10:59 Cloudy 68 20 63 17.2 84 84 E 15 24 30.12 1020 10 16 0.03 0.76
11:21 am 11:21 Cloudy with Light Rain 68 20 64 17.8 87 87 E 15 24 30.12 1020 4 6 0.00 0.03
11:59 am 11:59 Cloudy 69 20.6 65 18.3 87 87 E 18 30 30.12 1020 9 14 0.00 0.03
12:09 pm 12:09 Cloudy 69 20.6 64 17.8 84 84 ENE 13 20 30.12 1020 9 14 0.00 0.00
12:54 pm 12:54 Cloudy 70 21 63 17 78 78 E 7 11 30.12 1020 9 14 0.00 0.00
12:59 pm 12:59 Cloudy 69 20.6 64 17.8 84 84 E 10 17 30.12 1020 9 14 0.00 0.00
1:57 pm 13:57 Cloudy 70 21 64 18 83 83 ESE 14 22 30.12 1020 10 16 0.00 0.00
1:59 pm 13:59 Cloudy 70 21.1 64 17.8 82 82 E 12 19 30.11 1020 10 16 0.00 0.00
2:59 pm 14:59 Cloudy 71 21.7 65 18.3 81 81 E 12 19 30.11 1020 9 14 0.00 0.00
3:59 pm 15:59 Cloudy 71 21.7 65 18.3 81 81 E 6 9 30.11 1020 9 14 0.00 0.00
4:13 pm 16:13 Cloudy 71 21.7 65 18.3 81 81 E 6 9 30.12 1020 8 13 0.00 0.00
4:59 pm 16:59 Cloudy 71 21.7 66 18.9 84 84 E 8 13 30.11 1020 8 13 0.00 0.00
5:26 pm 17:26 Cloudy 71 21.7 65 18.3 81 81 E 8 13 30.12 1020 9 14 0.00 0.00
5:59 pm 17:59 Cloudy 72 22.2 64 17.8 76 76 E 8 13 30.11 1020 10 16 0.00 0.00
6:59 pm 18:59 Cloudy 72 22.2 65 18.3 79 79 ENE 9 15 30.11 1020 10 16 0.00 0.00
7:59 pm 19:59 Cloudy 71 21.7 66 18.9 84 84 ENE 9 15 30.12 1020 10 16 0.00 0.00
8:59 pm 20:59 Cloudy 71 21.7 65 18.3 81 81 E 6 9 30.12 1020 10 16 0.00 0.00
9:07 pm 21:07 Cloudy 71 21.7 65 18.3 81 81 E 6 9 30.12 1020 10 16 0.00 0.00
9:59 pm 21:59 Cloudy 71 21.7 65 18.3 81 81 E 5 7 30.11 1020 10 16 0.00 0.00
10:59 pm 22:59 Mostly Cloudy 69 20.6 65 18.3 87 87 Calm 30.10 1019 10 16 0.00 0.00
11:59 pm 23:59 Mostly Cloudy 67 19.4 65 18.3 93 93 Calm 30.11 1020 10 16 0.00 0.00

Powered by AerisWeather